This is the latest recevied weather packets stored in our database for station/object EB2EMZ-15. If no packets are shown the sender has not sent any weather packets the latest 10 day(s).
| Time | Temp. | Humidity | Pressure | Rain* | Wind** | Luminosity | Snow |
|---|---|---|---|---|---|---|---|
| 1777548617 | 23.33° C | 48% | 994.8 hPa | 0 mm | - | - | - |
| 1777548315 | 23.33° C | 48% | 994.8 hPa | 0 mm | - | - | - |
| 1777548018 | 23.33° C | 49% | 994.8 hPa | 0 mm | - | - | - |
| 1777547715 | 23.33° C | 49% | 994.8 hPa | 0 mm | - | - | - |
| 1777547418 | 23.33° C | 48% | 994.9 hPa | 0 mm | - | - | - |
| 1777547115 | 23.89° C | 46% | 994.8 hPa | 0 mm | - | - | - |
| 1777546815 | 24.44° C | 47% | 994.9 hPa | 0 mm | - | - | - |
| 1777546515 | 24.44° C | 47% | 995 hPa | 0 mm | - | - | - |
| 1777546218 | 24.44° C | 47% | 995 hPa | 0 mm | - | - | - |
| 1777545915 | 24.44° C | 47% | 995.1 hPa | 0 mm | - | - | - |
| 1777545618 | 25° C | 47% | 995.1 hPa | 0 mm | - | - | - |
| 1777545315 | 25° C | 47% | 995.1 hPa | 0 mm | - | - | - |
| 1777545017 | 25° C | 47% | 995.1 hPa | 0 mm | - | - | - |
| 1777544715 | 25° C | 47% | 995.1 hPa | 0 mm | - | - | - |
| 1777544417 | 25° C | 46% | 995.2 hPa | 0 mm | - | - | - |
| 1777544114 | 25.56° C | 47% | 995.1 hPa | 0 mm | - | - | - |
| 1777543817 | 25.56° C | 46% | 995.2 hPa | 0 mm | - | - | - |
| 1777543515 | 25.56° C | 48% | 995.1 hPa | 0 mm | - | - | - |
| 1777543214 | 25.56° C | 46% | 995.1 hPa | 0 mm | - | - | - |
| 1777542916 | 26.11° C | 45% | 995.1 hPa | 0 mm | - | - | - |
| 1777542618 | 26.67° C | 44% | 994.9 hPa | 0 mm | - | - | - |
| 1777542315 | 27.78° C | 41% | 994.8 hPa | 0 mm | - | - | - |
| 1777542018 | 28.89° C | 40% | 994.9 hPa | 0 mm | - | - | - |
| 1777541715 | 30° C | 41% | 994.9 hPa | 0 mm | - | - | - |
| 1777541418 | 31.67° C | 40% | 994.8 hPa | 0 mm | - | - | - |
* Rain latest hour (hover to see other rain measurements)
** Current wind speed in m/s (hover to see current wind gust speed)